Location: Avebury
(53.1487°N, 106.9774°W)
Time: 11:12:43
(UTC+00:00)

Envisat - Pass Details

Date: 25 January 2022
Orbit: 764 x 765 km, 98.2° (Epoch: 22 May)

Event Time Altitude Azimuth Distance (km) Brightness Sun altitude
Rises 13:12:28 0° 10° (N) 3,245 6.3 -16.2°
Reaches altitude 10° 13:14:54 10° 2° (N) 2,314 5.4 -15.8°
Maximum altitude 13:19:33 37° 297° (WNW) 1,179 3.5 -15.1°
Drops below altitude 10° 13:24:11 10° 231° (SW) 2,301 5.1 -14.4°
Sets 13:26:37 0° 223° (SW) 3,223 5.9 -14.1°
